Time,TemperatureF,DewpointF,PressureIn,WindDirection,WindDirectionDegrees,WindSpeedMPH,WindSpeedGustMPH,Humidity,HourlyPrecipIn,Conditions,Clouds,dailyrainin,SoftwareType,DateUTC
2013-03-05 00:23:00,32.0,-99.9,29.98,North,-999,-999.0,8.0,-999,-99.99,,,-99.99,,2013-03-05 05:23:00,
2013-03-05 00:32:00,32.0,-99.9,29.98,North,-999,-999.0,8.0,-999,-99.99,,,-99.99,,2013-03-05 05:32:00,
2013-03-05 00:42:00,32.0,-99.9,29.98,North,-999,-999.0,8.0,-999,-99.99,,,-99.99,,2013-03-05 05:42:00,
2013-03-05 00:52:00,32.0,-99.9,29.98,North,-999,-999.0,12.0,-999,-99.99,,,-99.99,,2013-03-05 05:52:00,
2013-03-05 01:22:00,32.0,-99.9,29.98,North,-999,-999.0,12.0,-999,-99.99,,,-99.99,,2013-03-05 06:22:00,
2013-03-05 01:32:00,32.0,-99.9,29.98,North,-999,-999.0,12.0,-999,-99.99,,,-99.99,,2013-03-05 06:32:00,
2013-03-05 01:42:00,32.0,-99.9,29.98,North,-999,-999.0,12.0,-999,-99.99,,,-99.99,,2013-03-05 06:42:00,
2013-03-05 01:52:00,31.0,-99.9,29.99,North,-999,-999.0,8.0,-999,-99.99,,,-99.99,,2013-03-05 06:52:00,
2013-03-05 02:22:00,31.0,-99.9,29.99,North,-999,-999.0,8.0,-999,-99.99,,,-99.99,,2013-03-05 07:22:00,
2013-03-05 02:32:00,31.0,-99.9,29.99,North,-999,-999.0,8.0,-999,-99.99,,,-99.99,,2013-03-05 07:32:00,
2013-03-05 02:42:00,31.0,-99.9,29.99,North,-999,-999.0,8.0,-999,-99.99,,,-99.99,,2013-03-05 07:42:00,
2013-03-05 02:52:00,30.0,-99.9,30.00,North,-999,-999.0,-999.0,-999,-99.99,,,-99.99,,2013-03-05 07:52:00,
2013-03-05 03:21:00,30.0,-99.9,30.00,North,-999,-999.0,-999.0,-999,-99.99,,,-99.99,,2013-03-05 08:21:00,
2013-03-05 03:32:00,30.0,-99.9,30.00,North,-999,-999.0,-999.0,-999,-99.99,,,-99.99,,2013-03-05 08:32:00,
2013-03-05 03:42:00,30.0,-99.9,30.00,North,-999,-999.0,-999.0,-999,-99.99,,,-99.99,,2013-03-05 08:42:00,
2013-03-05 03:52:00,30.0,-99.9,30.00,North,-999,-999.0,-999.0,-999,-99.99,,,-99.99,,2013-03-05 08:52:00,
2013-03-05 04:22:00,30.0,-99.9,30.00,North,-999,-999.0,-999.0,-999,-99.99,,,-99.99,,2013-03-05 09:22:00,
2013-03-05 04:32:00,30.0,-99.9,30.00,North,-999,-999.0,-999.0,-999,-99.99,,,-99.99,,2013-03-05 09:32:00,
2013-03-05 04:43:00,30.0,-99.9,30.00,North,-999,-999.0,-999.0,-999,-99.99,,,-99.99,,2013-03-05 09:43:00,
2013-03-05 04:52:00,30.0,-99.9,30.02,North,-999,-999.0,-999.0,-999,-99.99,,,-99.99,,2013-03-05 09:52:00,
2013-03-05 05:22:00,30.0,-99.9,30.02,North,-999,-999.0,-999.0,-999,-99.99,,,-99.99,,2013-03-05 10:22:00,
2013-03-05 05:32:00,30.0,-99.9,30.02,North,-999,-999.0,-999.0,-999,-99.99,,,-99.99,,2013-03-05 10:32:00,
2013-03-05 05:42:00,30.0,-99.9,30.02,North,-999,-999.0,-999.0,-999,-99.99,,,-99.99,,2013-03-05 10:42:00,
2013-03-05 06:52:00,29.0,-99.9,30.03,North,-999,-999.0,-999.0,-999,-99.99,,,-99.99,,2013-03-05 11:52:00,
2013-03-05 07:32:00,29.0,-99.9,30.03,North,-999,-999.0,-999.0,-999,-99.99,,,-99.99,,2013-03-05 12:32:00,
2013-03-05 07:42:00,29.0,-99.9,30.03,North,-999,-999.0,-999.0,-999,-99.99,,,-99.99,,2013-03-05 12:42:00,
2013-03-05 07:52:00,31.0,-99.9,30.04,North,-999,-999.0,-999.0,-999,-99.99,,,-99.99,,2013-03-05 12:52:00,
2013-03-05 08:32:00,31.0,-99.9,30.04,North,-999,-999.0,-999.0,-999,-99.99,,,-99.99,,2013-03-05 13:32:00,
2013-03-05 08:42:00,31.0,-99.9,30.04,North,-999,-999.0,-999.0,-999,-99.99,,,-99.99,,2013-03-05 13:42:00,
2013-03-05 08:52:00,34.0,-99.9,30.05,NNE,19,-999.0,8.0,-999,-99.99,,,-99.99,,2013-03-05 13:52:00,
2013-03-05 09:22:00,34.0,-99.9,30.05,NNE,19,-999.0,8.0,-999,-99.99,,,-99.99,,2013-03-05 14:22:00,
2013-03-05 09:32:00,34.0,-99.9,30.05,NNE,19,-999.0,8.0,-999,-99.99,,,-99.99,,2013-03-05 14:32:00,
2013-03-05 09:42:00,34.0,-99.9,30.05,NNE,19,-999.0,8.0,-999,-99.99,,,-99.99,,2013-03-05 14:42:00,
2013-03-05 09:52:00,38.0,-99.9,30.03,North,-999,-999.0,7.0,-999,-99.99,,,-99.99,,2013-03-05 14:52:00,
2013-03-05 10:22:00,38.0,-99.9,30.03,North,-999,-999.0,7.0,-999,-99.99,,,-99.99,,2013-03-05 15:22:00,
2013-03-05 10:32:00,38.0,-99.9,30.03,North,-999,-999.0,7.0,-999,-99.99,,,-99.99,,2013-03-05 15:32:00,
2013-03-05 10:42:00,38.0,-99.9,30.03,North,-999,-999.0,7.0,-999,-99.99,,,-99.99,,2013-03-05 15:42:00,
2013-03-05 10:52:00,39.0,-99.9,30.03,North,-999,-999.0,9.0,-999,-99.99,,,-99.99,,2013-03-05 15:52:00,
2013-03-05 11:22:00,39.0,-99.9,30.03,North,-999,-999.0,9.0,-999,-99.99,,,-99.99,,2013-03-05 16:22:00,
2013-03-05 11:32:00,39.0,-99.9,30.03,North,-999,-999.0,9.0,-999,-99.99,,,-99.99,,2013-03-05 16:32:00,
2013-03-05 11:42:00,39.0,-99.9,30.03,North,-999,-999.0,9.0,-999,-99.99,,,-99.99,,2013-03-05 16:42:00,
2013-03-05 11:52:00,40.0,-99.9,30.01,North,-999,-999.0,-999.0,-999,-99.99,,,-99.99,,2013-03-05 16:52:00,
2013-03-05 12:32:00,40.0,-99.9,30.01,North,-999,-999.0,-999.0,-999,-99.99,,,-99.99,,2013-03-05 17:32:00,
2013-03-05 12:42:00,40.0,-99.9,30.01,North,-999,-999.0,-999.0,-999,-99.99,,,-99.99,,2013-03-05 17:42:00,
2013-03-05 12:52:00,42.0,-99.9,30.00,North,-999,-999.0,10.0,-999,-99.99,,,-99.99,,2013-03-05 17:52:00,
2013-03-05 13:22:00,42.0,-99.9,30.00,North,-999,-999.0,10.0,-999,-99.99,,,-99.99,,2013-03-05 18:22:00,
2013-03-05 13:32:00,42.0,-99.9,30.00,North,-999,-999.0,10.0,-999,-99.99,,,-99.99,,2013-03-05 18:32:00,
2013-03-05 13:42:00,42.0,-99.9,30.00,North,-999,-999.0,10.0,-999,-99.99,,,-99.99,,2013-03-05 18:42:00,
2013-03-05 13:52:00,41.0,-99.9,29.99,North,-999,-999.0,9.0,-999,-99.99,,,-99.99,,2013-03-05 18:52:00,
2013-03-05 14:22:00,41.0,-99.9,29.99,North,-999,-999.0,9.0,-999,-99.99,,,-99.99,,2013-03-05 19:22:00,
2013-03-05 14:32:00,41.0,-99.9,29.99,North,-999,-999.0,9.0,-999,-99.99,,,-99.99,,2013-03-05 19:32:00,
2013-03-05 14:42:00,41.0,-99.9,29.99,North,-999,-999.0,9.0,-999,-99.99,,,-99.99,,2013-03-05 19:42:00,
2013-03-05 14:52:00,40.0,-99.9,29.96,North,-999,-999.0,3.0,-999,-99.99,,,-99.99,,2013-03-05 19:52:00,
2013-03-05 15:22:00,40.0,-99.9,29.96,North,-999,-999.0,3.0,-999,-99.99,,,-99.99,,2013-03-05 20:22:00,
2013-03-05 15:32:00,40.0,-99.9,29.96,North,-999,-999.0,3.0,-999,-99.99,,,-99.99,,2013-03-05 20:32:00,
2013-03-05 15:42:00,40.0,-99.9,29.96,North,-999,-999.0,3.0,-999,-99.99,,,-99.99,,2013-03-05 20:42:00,
2013-03-05 15:52:00,41.0,-99.9,29.95,North,-999,-999.0,-999.0,-999,-99.99,,,-99.99,,2013-03-05 20:52:00,
2013-03-05 16:32:00,41.0,-99.9,29.95,North,-999,-999.0,-999.0,-999,-99.99,,,-99.99,,2013-03-05 21:32:00,
2013-03-05 16:42:00,41.0,-99.9,29.95,North,-999,-999.0,-999.0,-999,-99.99,,,-99.99,,2013-03-05 21:42:00,
2013-03-05 16:52:00,40.0,-99.9,29.97,North,-999,-999.0,-999.0,-999,-99.99,,,-99.99,,2013-03-05 21:52:00,
2013-03-05 17:22:00,40.0,-99.9,29.97,North,-999,-999.0,-999.0,-999,-99.99,,,-99.99,,2013-03-05 22:22:00,
2013-03-05 17:32:00,40.0,-99.9,29.97,North,-999,-999.0,-999.0,-999,-99.99,,,-99.99,,2013-03-05 22:32:00,
2013-03-05 17:42:00,40.0,-99.9,29.97,North,-999,-999.0,-999.0,-999,-99.99,,,-99.99,,2013-03-05 22:42:00,
2013-03-05 18:52:00,38.0,-99.9,29.99,North,-999,-999.0,7.0,-999,-99.99,,,-99.99,,2013-03-05 23:52:00,
2013-03-05 19:22:00,38.0,-99.9,29.99,North,-999,-999.0,7.0,-999,-99.99,,,-99.99,,2013-03-06 00:22:00,
2013-03-05 19:32:00,38.0,-99.9,29.99,North,-999,-999.0,7.0,-999,-99.99,,,-99.99,,2013-03-06 00:32:00,
2013-03-05 19:42:00,38.0,-99.9,29.99,North,-999,-999.0,7.0,-999,-99.99,,,-99.99,,2013-03-06 00:42:00,
2013-03-05 20:52:00,35.0,-99.9,29.98,North,-999,-999.0,-999.0,-999,-99.99,,,-99.99,,2013-03-06 01:52:00,
2013-03-05 21:22:00,35.0,-99.9,29.98,North,-999,-999.0,-999.0,-999,-99.99,,,-99.99,,2013-03-06 02:22:00,
2013-03-05 21:32:00,35.0,-99.9,29.98,North,-999,-999.0,-999.0,-999,-99.99,,,-99.99,,2013-03-06 02:32:00,
2013-03-05 21:42:00,35.0,-99.9,29.98,North,-999,-999.0,-999.0,-999,-99.99,,,-99.99,,2013-03-06 02:42:00,
2013-03-05 21:52:00,35.0,-99.9,29.96,SE,143,-999.0,-999.0,-999,-99.99,,,-99.99,,2013-03-06 02:52:00,
2013-03-05 22:32:00,35.0,-99.9,29.96,SE,143,-999.0,-999.0,-999,-99.99,,,-99.99,,2013-03-06 03:32:00,
2013-03-05 22:42:00,35.0,-99.9,29.96,SE,143,-999.0,-999.0,-999,-99.99,,,-99.99,,2013-03-06 03:42:00,